Year,Month,Day,Hour,Minute,Value (Times are PST for temperature in C)
2015,06,11,00,00,13.00
2015,06,11,00,01,13.00
2015,06,11,00,02,13.00
2015,06,11,00,03,13.00
2015,06,11,00,04,13.00
2015,06,11,00,05,13.00
2015,06,11,00,06,13.00
2015,06,11,00,07,13.00
2015,06,11,00,08,13.00
2015,06,11,00,09,13.00
2015,06,11,00,10,13.00
2015,06,11,00,11,13.00
2015,06,11,00,12,13.00
2015,06,11,00,13,13.00
2015,06,11,00,14,13.00
2015,06,11,00,15,13.00
2015,06,11,00,16,13.00
2015,06,11,00,17,13.00
2015,06,11,00,18,13.00
2015,06,11,00,19,13.00
2015,06,11,00,20,13.00
2015,06,11,00,21,13.00
2015,06,11,00,22,13.00
2015,06,11,00,23,13.00
2015,06,11,00,24,13.00
2015,06,11,00,25,13.00
2015,06,11,00,26,13.00
2015,06,11,00,27,13.00
2015,06,11,00,28,13.00
2015,06,11,00,29,13.00
2015,06,11,00,30,13.00
2015,06,11,00,31,13.00
2015,06,11,00,32,13.00
2015,06,11,00,33,13.00
2015,06,11,00,34,13.00
2015,06,11,00,35,13.00
2015,06,11,00,36,13.00
2015,06,11,00,37,13.00
2015,06,11,00,38,13.00
2015,06,11,00,39,13.00
2015,06,11,00,40,13.00
2015,06,11,00,41,13.00
2015,06,11,00,42,13.00
2015,06,11,00,43,13.00
2015,06,11,00,44,13.00
2015,06,11,00,45,13.00
2015,06,11,00,46,13.00
2015,06,11,00,47,13.00
2015,06,11,00,48,13.00
2015,06,11,00,49,13.00
2015,06,11,00,50,13.00
2015,06,11,00,51,13.00
2015,06,11,00,52,13.00
2015,06,11,00,53,13.00
2015,06,11,00,54,13.00
2015,06,11,00,55,13.00
2015,06,11,00,56,13.00
2015,06,11,00,57,13.00
2015,06,11,00,58,13.00
2015,06,11,00,59,13.00
2015,06,11,01,00,13.00
2015,06,11,01,01,13.00
2015,06,11,01,02,13.00
2015,06,11,01,03,13.00
2015,06,11,01,04,13.00
2015,06,11,01,05,13.00
2015,06,11,01,06,13.00
2015,06,11,01,07,13.00
2015,06,11,01,08,13.00
2015,06,11,01,09,13.00
2015,06,11,01,10,13.00
2015,06,11,01,11,13.00
2015,06,11,01,12,13.00
2015,06,11,01,13,13.00
2015,06,11,01,14,13.00
2015,06,11,01,15,13.00
2015,06,11,01,16,13.00
2015,06,11,01,17,13.00
2015,06,11,01,18,13.00
2015,06,11,01,19,13.00
2015,06,11,01,20,13.00
2015,06,11,01,21,13.00
2015,06,11,01,22,13.00
2015,06,11,01,23,13.00
2015,06,11,01,24,13.00
2015,06,11,01,25,13.00
2015,06,11,01,26,13.00
2015,06,11,01,27,13.00
2015,06,11,01,28,13.00
2015,06,11,01,29,13.00
2015,06,11,01,30,13.00
2015,06,11,01,31,13.00
2015,06,11,01,32,13.00
2015,06,11,01,33,13.00
2015,06,11,01,34,13.00
2015,06,11,01,35,13.00
2015,06,11,01,36,13.00
2015,06,11,01,37,13.00
2015,06,11,01,38,13.00
2015,06,11,01,39,13.00
2015,06,11,01,40,13.00
2015,06,11,01,41,13.00
2015,06,11,01,42,13.00
2015,06,11,01,43,13.00
2015,06,11,01,44,13.10
2015,06,11,01,45,13.10
2015,06,11,01,46,13.10
2015,06,11,01,47,13.10
2015,06,11,01,48,13.10
2015,06,11,01,49,13.10
2015,06,11,01,50,13.10
2015,06,11,01,51,13.10
2015,06,11,01,52,13.10
2015,06,11,01,53,13.10
2015,06,11,01,54,13.10
2015,06,11,01,55,13.10
2015,06,11,01,56,13.10
2015,06,11,01,57,13.10
2015,06,11,01,58,13.10
2015,06,11,01,59,13.10
2015,06,11,02,00,13.10
2015,06,11,02,01,13.10
2015,06,11,02,02,13.00
2015,06,11,02,03,13.10
2015,06,11,02,04,13.00
2015,06,11,02,05,13.00
2015,06,11,02,06,13.00
2015,06,11,02,07,13.00
2015,06,11,02,08,13.00
2015,06,11,02,09,13.00
2015,06,11,02,10,13.00
2015,06,11,02,11,13.00
2015,06,11,02,12,13.00
2015,06,11,02,13,13.00
2015,06,11,02,14,13.00
2015,06,11,02,15,13.00
2015,06,11,02,16,13.00
2015,06,11,02,17,13.00
2015,06,11,02,18,13.00
2015,06,11,02,19,13.00
2015,06,11,02,20,12.90
2015,06,11,02,21,12.90
2015,06,11,02,22,12.90
2015,06,11,02,23,12.90
2015,06,11,02,24,12.90
2015,06,11,02,25,12.90
2015,06,11,02,26,12.90
2015,06,11,02,27,12.90
2015,06,11,02,28,12.90
2015,06,11,02,29,12.90
2015,06,11,02,30,12.90
2015,06,11,02,31,12.90
2015,06,11,02,32,12.90
2015,06,11,02,33,12.90
2015,06,11,02,34,12.90
2015,06,11,02,35,12.90
2015,06,11,02,36,12.80
2015,06,11,02,37,12.80
2015,06,11,02,38,12.80
2015,06,11,02,39,12.80
2015,06,11,02,40,12.80
2015,06,11,02,41,12.80
2015,06,11,02,42,12.80
2015,06,11,02,43,12.80
2015,06,11,02,44,12.80
2015,06,11,02,45,12.80
2015,06,11,02,46,12.80
2015,06,11,02,47,12.80
2015,06,11,02,48,12.80
2015,06,11,02,49,12.80
2015,06,11,02,50,12.80
2015,06,11,02,51,12.80
2015,06,11,02,52,12.80
2015,06,11,02,53,12.80
2015,06,11,02,54,12.80
2015,06,11,02,55,12.80
2015,06,11,02,56,12.80
2015,06,11,02,57,12.80
2015,06,11,02,58,12.80
2015,06,11,02,59,12.80
2015,06,11,03,00,12.80
2015,06,11,03,01,12.80
2015,06,11,03,02,12.80
2015,06,11,03,03,12.80
2015,06,11,03,04,12.80
2015,06,11,03,05,12.80
2015,06,11,03,06,12.80
2015,06,11,03,07,12.90
2015,06,11,03,08,12.90
2015,06,11,03,09,12.90
2015,06,11,03,10,12.90
2015,06,11,03,11,12.90
2015,06,11,03,12,12.90
2015,06,11,03,13,12.90
2015,06,11,03,14,12.90
2015,06,11,03,15,12.90
2015,06,11,03,16,12.90
2015,06,11,03,17,12.90
2015,06,11,03,18,12.80
2015,06,11,03,19,12.80
2015,06,11,03,20,12.80
2015,06,11,03,21,12.80
2015,06,11,03,22,12.80
2015,06,11,03,23,12.80
2015,06,11,03,24,12.80
2015,06,11,03,25,12.80
2015,06,11,03,26,12.80
2015,06,11,03,27,12.80
2015,06,11,03,28,12.80
2015,06,11,03,29,12.80
2015,06,11,03,30,12.80
2015,06,11,03,31,12.80
2015,06,11,03,32,12.80
2015,06,11,03,33,12.80
2015,06,11,03,34,12.80
2015,06,11,03,35,12.80
2015,06,11,03,36,12.80
2015,06,11,03,37,12.80
2015,06,11,03,38,12.80
2015,06,11,03,39,12.80
2015,06,11,03,40,12.80
2015,06,11,03,41,12.80
2015,06,11,03,42,12.80
2015,06,11,03,43,12.80
2015,06,11,03,44,12.80
2015,06,11,03,45,12.80
2015,06,11,03,46,12.80
2015,06,11,03,47,12.80
2015,06,11,03,48,12.80
2015,06,11,03,49,12.80
2015,06,11,03,50,12.80
2015,06,11,03,51,12.80
2015,06,11,03,52,12.80
2015,06,11,03,53,12.80
2015,06,11,03,54,12.80
2015,06,11,03,55,12.80
2015,06,11,03,56,12.80
2015,06,11,03,57,12.80
2015,06,11,03,58,12.80
2015,06,11,03,59,12.80
2015,06,11,04,00,12.80
2015,06,11,04,01,12.80
2015,06,11,04,02,12.80
2015,06,11,04,03,12.80
2015,06,11,04,04,12.80
2015,06,11,04,05,12.80
2015,06,11,04,06,12.80
2015,06,11,04,07,12.80
2015,06,11,04,08,12.80
2015,06,11,04,09,12.80
2015,06,11,04,10,12.80
2015,06,11,04,11,12.80
2015,06,11,04,12,12.80
2015,06,11,04,13,12.80
2015,06,11,04,14,12.80
2015,06,11,04,15,12.80
2015,06,11,04,16,12.80
2015,06,11,04,17,12.80
2015,06,11,04,18,12.80
2015,06,11,04,19,12.80
2015,06,11,04,20,12.80
2015,06,11,04,21,12.80
2015,06,11,04,22,12.80
2015,06,11,04,23,12.80
2015,06,11,04,24,12.80
2015,06,11,04,25,12.80
2015,06,11,04,26,12.80
2015,06,11,04,27,12.80
2015,06,11,04,28,12.80
2015,06,11,04,29,12.80
2015,06,11,04,30,12.80
2015,06,11,04,31,12.80
2015,06,11,04,32,12.80
2015,06,11,04,33,12.80
2015,06,11,04,34,12.80
2015,06,11,04,35,12.80
2015,06,11,04,36,12.80
2015,06,11,04,37,12.80
2015,06,11,04,38,12.80
2015,06,11,04,39,12.80
2015,06,11,04,40,12.80
2015,06,11,04,41,12.80
2015,06,11,04,42,12.80
2015,06,11,04,43,12.80
2015,06,11,04,44,12.80
2015,06,11,04,45,12.80
2015,06,11,04,46,12.80
2015,06,11,04,47,12.80
2015,06,11,04,48,12.80
2015,06,11,04,49,12.80
2015,06,11,04,50,12.70
2015,06,11,04,51,12.70
2015,06,11,04,52,12.70
2015,06,11,04,53,12.70
2015,06,11,04,54,12.70
2015,06,11,04,55,12.70
2015,06,11,04,56,12.70
2015,06,11,04,57,12.70
2015,06,11,04,58,12.70
2015,06,11,04,59,12.70
2015,06,11,05,00,12.70
2015,06,11,05,01,12.80
2015,06,11,05,02,12.80
2015,06,11,05,03,12.80
2015,06,11,05,04,12.80
2015,06,11,05,05,12.80
2015,06,11,05,06,12.80
2015,06,11,05,07,12.80
2015,06,11,05,08,12.80
2015,06,11,05,09,12.70
2015,06,11,05,10,12.70
2015,06,11,05,11,12.70
2015,06,11,05,12,12.70
2015,06,11,05,13,12.70
2015,06,11,05,14,12.80
2015,06,11,05,15,12.80
2015,06,11,05,16,12.80
2015,06,11,05,17,12.80
2015,06,11,05,18,12.80
2015,06,11,05,19,12.80
2015,06,11,05,20,12.80
2015,06,11,05,21,12.80
2015,06,11,05,22,12.80
2015,06,11,05,23,12.80
2015,06,11,05,24,12.80
2015,06,11,05,25,12.80
2015,06,11,05,26,12.80
2015,06,11,05,27,12.80
2015,06,11,05,28,12.80
2015,06,11,05,29,12.80
2015,06,11,05,30,12.80
2015,06,11,05,31,12.80
2015,06,11,05,32,12.80
2015,06,11,05,33,12.80
2015,06,11,05,34,12.80
2015,06,11,05,35,12.80
2015,06,11,05,36,12.80
2015,06,11,05,37,12.70
2015,06,11,05,38,12.70
2015,06,11,05,39,12.70
2015,06,11,05,40,12.70
2015,06,11,05,41,12.70
2015,06,11,05,42,12.70
2015,06,11,05,43,12.70
2015,06,11,05,44,12.70
2015,06,11,05,45,12.70
2015,06,11,05,46,12.70
2015,06,11,05,47,12.70
2015,06,11,05,48,12.70
2015,06,11,05,49,12.70
2015,06,11,05,50,12.80
2015,06,11,05,51,12.80
2015,06,11,05,52,12.80
2015,06,11,05,53,12.80
2015,06,11,05,54,12.80
2015,06,11,05,55,12.80
2015,06,11,05,56,12.80
2015,06,11,05,57,12.80
2015,06,11,05,58,12.80
2015,06,11,05,59,12.80
2015,06,11,06,00,12.80
2015,06,11,06,01,12.80
2015,06,11,06,02,12.80
2015,06,11,06,03,12.80
2015,06,11,06,04,12.80
2015,06,11,06,05,12.80
2015,06,11,06,06,12.80
2015,06,11,06,07,12.80
2015,06,11,06,08,12.80
2015,06,11,06,09,12.80
2015,06,11,06,10,12.80
2015,06,11,06,11,12.80
2015,06,11,06,12,12.80
2015,06,11,06,13,12.80
2015,06,11,06,14,12.80
2015,06,11,06,15,12.80
2015,06,11,06,16,12.80
2015,06,11,06,17,12.80
2015,06,11,06,18,12.80
2015,06,11,06,19,12.80
2015,06,11,06,20,12.80
2015,06,11,06,21,12.80
2015,06,11,06,22,12.80
2015,06,11,06,23,12.80
2015,06,11,06,24,12.80
2015,06,11,06,25,12.80
2015,06,11,06,26,12.80
2015,06,11,06,27,12.80
2015,06,11,06,28,12.80
2015,06,11,06,29,12.80
2015,06,11,06,30,12.80
2015,06,11,06,31,12.80
2015,06,11,06,32,12.80
2015,06,11,06,33,12.90
2015,06,11,06,34,12.90
2015,06,11,06,35,12.90
2015,06,11,06,36,12.90
2015,06,11,06,37,12.90
2015,06,11,06,38,13.00
2015,06,11,06,39,13.00
2015,06,11,06,40,13.00
2015,06,11,06,41,13.00
2015,06,11,06,42,13.00
2015,06,11,06,43,13.00
2015,06,11,06,44,13.00
2015,06,11,06,45,13.00
2015,06,11,06,46,13.00
2015,06,11,06,47,13.10
2015,06,11,06,48,13.10
2015,06,11,06,49,13.10
2015,06,11,06,50,13.10
2015,06,11,06,51,13.10
2015,06,11,06,52,13.10
2015,06,11,06,53,13.10
2015,06,11,06,54,13.10
2015,06,11,06,55,13.10
2015,06,11,06,56,13.20
2015,06,11,06,57,13.20
2015,06,11,06,58,13.20
2015,06,11,06,59,13.20
2015,06,11,07,00,13.20
2015,06,11,07,01,13.20
2015,06,11,07,02,13.20
2015,06,11,07,03,13.20
2015,06,11,07,04,13.20
2015,06,11,07,05,13.30
2015,06,11,07,06,13.30
2015,06,11,07,07,13.30
2015,06,11,07,08,13.30
2015,06,11,07,09,13.30
2015,06,11,07,10,13.30
2015,06,11,07,11,13.30
2015,06,11,07,12,13.30
2015,06,11,07,13,13.30
2015,06,11,07,14,13.30
2015,06,11,07,15,13.30
2015,06,11,07,16,13.30
2015,06,11,07,17,13.30
2015,06,11,07,18,13.30
2015,06,11,07,19,13.30
2015,06,11,07,20,13.30
2015,06,11,07,21,13.30
2015,06,11,07,22,13.40
2015,06,11,07,23,13.40
2015,06,11,07,24,13.40
2015,06,11,07,25,13.40
2015,06,11,07,26,13.40
2015,06,11,07,27,13.40
2015,06,11,07,28,13.50
2015,06,11,07,29,13.50
2015,06,11,07,30,13.50
2015,06,11,07,31,13.50
2015,06,11,07,32,13.50
2015,06,11,07,33,13.60
2015,06,11,07,34,13.60
2015,06,11,07,35,13.60
2015,06,11,07,36,13.60
2015,06,11,07,37,13.60
2015,06,11,07,38,13.70
2015,06,11,07,39,13.70
2015,06,11,07,40,13.70
2015,06,11,07,41,13.70
2015,06,11,07,42,13.70
2015,06,11,07,43,13.70
2015,06,11,07,44,13.70
2015,06,11,07,45,13.70
2015,06,11,07,46,13.70
2015,06,11,07,47,13.70
2015,06,11,07,48,13.70
2015,06,11,07,49,13.70
2015,06,11,07,50,13.70
2015,06,11,07,51,13.80
2015,06,11,07,52,13.80
2015,06,11,07,53,13.80
2015,06,11,07,54,13.90
2015,06,11,07,55,13.90
2015,06,11,07,56,14.00
2015,06,11,07,57,14.00
2015,06,11,07,58,14.00
2015,06,11,07,59,14.00
2015,06,11,08,00,14.00
2015,06,11,08,01,14.00
2015,06,11,08,02,14.00
2015,06,11,08,03,14.00
2015,06,11,08,04,14.10
2015,06,11,08,05,14.10
2015,06,11,08,06,14.10
2015,06,11,08,07,14.10
2015,06,11,08,08,14.20
2015,06,11,08,09,14.20
2015,06,11,08,10,14.20
2015,06,11,08,11,14.20
2015,06,11,08,12,14.20
2015,06,11,08,13,14.20
2015,06,11,08,14,14.20
2015,06,11,08,15,14.30
2015,06,11,08,16,14.20
2015,06,11,08,17,14.30
2015,06,11,08,18,14.30
2015,06,11,08,19,14.30
2015,06,11,08,20,14.40
2015,06,11,08,21,14.30
2015,06,11,08,22,14.30
2015,06,11,08,23,14.30
2015,06,11,08,24,14.30
2015,06,11,08,25,14.30
2015,06,11,08,26,14.20
2015,06,11,08,27,14.20
2015,06,11,08,28,14.20
2015,06,11,08,29,14.20
2015,06,11,08,30,14.30
2015,06,11,08,31,14.30
2015,06,11,08,32,14.30
2015,06,11,08,33,14.30
2015,06,11,08,34,14.30
2015,06,11,08,35,14.30
2015,06,11,08,36,14.30
2015,06,11,08,37,14.30
2015,06,11,08,38,14.30
2015,06,11,08,39,14.30
2015,06,11,08,40,14.30
2015,06,11,08,41,14.30
2015,06,11,08,42,14.40
2015,06,11,08,43,14.40
2015,06,11,08,44,14.40
2015,06,11,08,45,14.40
2015,06,11,08,46,14.50
2015,06,11,08,47,14.50
2015,06,11,08,48,14.50
2015,06,11,08,49,14.60
2015,06,11,08,50,14.60
2015,06,11,08,51,14.60
2015,06,11,08,52,14.60
2015,06,11,08,53,14.60
2015,06,11,08,54,14.60
2015,06,11,08,55,14.60
2015,06,11,08,56,14.60
2015,06,11,08,57,14.60
2015,06,11,08,58,14.60
2015,06,11,08,59,14.60
2015,06,11,09,00,14.50
2015,06,11,09,01,14.60
2015,06,11,09,02,14.60
2015,06,11,09,03,14.50
2015,06,11,09,04,14.60
2015,06,11,09,05,14.70
2015,06,11,09,06,14.70
2015,06,11,09,07,14.70
2015,06,11,09,08,14.60
2015,06,11,09,09,14.60
2015,06,11,09,10,14.50
2015,06,11,09,11,14.50
2015,06,11,09,12,14.50
2015,06,11,09,13,14.50
2015,06,11,09,14,14.50
2015,06,11,09,15,14.50
2015,06,11,09,16,14.50
2015,06,11,09,17,14.50
2015,06,11,09,18,14.50
2015,06,11,09,19,14.50
2015,06,11,09,20,14.50
2015,06,11,09,21,14.50
2015,06,11,09,22,14.60
2015,06,11,09,23,14.60
2015,06,11,09,24,14.60
2015,06,11,09,25,14.60
2015,06,11,09,26,14.60
2015,06,11,09,27,14.60
2015,06,11,09,28,14.60
2015,06,11,09,29,14.70
2015,06,11,09,30,14.80
2015,06,11,09,31,14.80
2015,06,11,09,32,14.80
2015,06,11,09,33,14.80
2015,06,11,09,34,14.80
2015,06,11,09,35,14.90
2015,06,11,09,36,14.80
2015,06,11,09,37,14.90
2015,06,11,09,38,14.90
2015,06,11,09,39,14.90
2015,06,11,09,40,15.00
2015,06,11,09,41,15.00
2015,06,11,09,42,15.00
2015,06,11,09,43,15.00
2015,06,11,09,44,15.00
2015,06,11,09,45,14.90
2015,06,11,09,46,14.90
2015,06,11,09,47,14.90
2015,06,11,09,48,14.90
2015,06,11,09,49,14.80
2015,06,11,09,50,14.80
2015,06,11,09,51,14.80
2015,06,11,09,52,14.80
2015,06,11,09,53,14.80
2015,06,11,09,54,14.80
2015,06,11,09,55,14.80
2015,06,11,09,56,14.80
2015,06,11,09,57,14.80
2015,06,11,09,58,14.80
2015,06,11,09,59,14.80
2015,06,11,10,00,14.80
2015,06,11,10,01,14.90
2015,06,11,10,02,15.00
2015,06,11,10,03,15.00
2015,06,11,10,04,15.10
2015,06,11,10,05,15.10
2015,06,11,10,06,15.10
2015,06,11,10,07,15.10
2015,06,11,10,08,15.10
2015,06,11,10,09,15.10
2015,06,11,10,10,15.10
2015,06,11,10,11,15.10
2015,06,11,10,12,15.10
2015,06,11,10,13,15.20
2015,06,11,10,14,15.20
2015,06,11,10,15,15.20
2015,06,11,10,16,15.20
2015,06,11,10,17,15.30
2015,06,11,10,18,15.30
2015,06,11,10,19,15.40
2015,06,11,10,20,15.40
2015,06,11,10,21,15.40
2015,06,11,10,22,15.50
2015,06,11,10,23,15.50
2015,06,11,10,24,15.50
2015,06,11,10,25,15.40
2015,06,11,10,26,15.40
2015,06,11,10,27,15.40
2015,06,11,10,28,15.40
2015,06,11,10,29,15.30
2015,06,11,10,30,15.40
2015,06,11,10,31,15.40
2015,06,11,10,32,15.30
2015,06,11,10,33,15.30
2015,06,11,10,34,15.40
2015,06,11,10,35,15.50
2015,06,11,10,36,15.50
2015,06,11,10,37,15.60
2015,06,11,10,38,15.60
2015,06,11,10,39,15.60
2015,06,11,10,40,15.60
2015,06,11,10,41,15.50
2015,06,11,10,42,15.50
2015,06,11,10,43,15.60
2015,06,11,10,44,15.60
2015,06,11,10,45,15.70
2015,06,11,10,46,15.70
2015,06,11,10,47,15.80
2015,06,11,10,48,15.70
2015,06,11,10,49,15.70
2015,06,11,10,50,15.70
2015,06,11,10,51,15.80
2015,06,11,10,52,15.80
2015,06,11,10,53,15.80
2015,06,11,10,54,15.80
2015,06,11,10,55,15.90
2015,06,11,10,56,15.90
2015,06,11,10,57,15.80
2015,06,11,10,58,15.80
2015,06,11,10,59,15.80
2015,06,11,11,00,15.80
2015,06,11,11,01,15.90
2015,06,11,11,02,16.00
2015,06,11,11,03,16.10
2015,06,11,11,04,15.90
2015,06,11,11,05,15.80
2015,06,11,11,06,15.80
2015,06,11,11,07,15.80
2015,06,11,11,08,15.90
2015,06,11,11,09,15.90
2015,06,11,11,10,15.90
2015,06,11,11,11,15.90
2015,06,11,11,12,15.90
2015,06,11,11,13,16.00
2015,06,11,11,14,16.00
2015,06,11,11,15,16.00
2015,06,11,11,16,15.90
2015,06,11,11,17,15.90
2015,06,11,11,18,16.00
2015,06,11,11,19,16.10
2015,06,11,11,20,16.20
2015,06,11,11,21,16.30
2015,06,11,11,22,16.40
2015,06,11,11,23,16.40
2015,06,11,11,24,16.40
2015,06,11,11,25,16.40
2015,06,11,11,26,16.40
2015,06,11,11,27,16.40
2015,06,11,11,28,16.40
2015,06,11,11,29,16.40
2015,06,11,11,30,16.30
2015,06,11,11,31,16.30
2015,06,11,11,32,16.30
2015,06,11,11,33,16.30
2015,06,11,11,34,16.30
2015,06,11,11,35,16.20
2015,06,11,11,36,16.20
2015,06,11,11,37,16.20
2015,06,11,11,38,16.10
2015,06,11,11,39,16.10
2015,06,11,11,40,16.10
2015,06,11,11,41,16.20
2015,06,11,11,42,16.20
2015,06,11,11,43,16.10
2015,06,11,11,44,16.10
2015,06,11,11,45,16.10
2015,06,11,11,46,16.10
2015,06,11,11,47,16.10
2015,06,11,11,48,16.10
2015,06,11,11,49,16.20
2015,06,11,11,50,16.30
2015,06,11,11,51,16.40
2015,06,11,11,52,16.40
2015,06,11,11,53,16.60
2015,06,11,11,54,16.50
2015,06,11,11,55,16.40
2015,06,11,11,56,16.40
2015,06,11,11,57,16.40
2015,06,11,11,58,16.40
2015,06,11,11,59,16.30
2015,06,11,12,00,16.20
2015,06,11,12,01,16.10
2015,06,11,12,02,16.20
2015,06,11,12,03,16.20
2015,06,11,12,04,16.30
2015,06,11,12,05,16.30
2015,06,11,12,06,16.20
2015,06,11,12,07,16.30
2015,06,11,12,08,16.20
2015,06,11,12,09,16.10
2015,06,11,12,10,16.10
2015,06,11,12,11,16.10
2015,06,11,12,12,16.20
2015,06,11,12,13,16.30
2015,06,11,12,14,16.30
2015,06,11,12,15,16.30
2015,06,11,12,16,16.20
2015,06,11,12,17,16.20
2015,06,11,12,18,16.20
2015,06,11,12,19,16.20
2015,06,11,12,20,16.20
2015,06,11,12,21,16.20
2015,06,11,12,22,16.20
2015,06,11,12,23,16.20
2015,06,11,12,24,16.30
2015,06,11,12,25,16.20
2015,06,11,12,26,16.30
2015,06,11,12,27,16.30
2015,06,11,12,28,16.30
2015,06,11,12,29,16.30
2015,06,11,12,30,16.40
2015,06,11,12,31,16.40
2015,06,11,12,32,16.40
2015,06,11,12,33,16.40
2015,06,11,12,34,16.40
2015,06,11,12,35,16.40
2015,06,11,12,36,16.40
2015,06,11,12,37,16.40
2015,06,11,12,38,16.40
2015,06,11,12,39,16.50
2015,06,11,12,40,16.60
2015,06,11,12,41,16.60
2015,06,11,12,42,16.50
2015,06,11,12,43,16.30
2015,06,11,12,44,16.30
2015,06,11,12,45,16.20
2015,06,11,12,46,16.20
2015,06,11,12,47,16.10
2015,06,11,12,48,16.20
2015,06,11,12,49,16.20
2015,06,11,12,50,16.30
2015,06,11,12,51,16.30
2015,06,11,12,52,16.30
2015,06,11,12,53,16.20
2015,06,11,12,54,16.20
2015,06,11,12,55,16.30
2015,06,11,12,56,16.40
2015,06,11,12,57,16.30
2015,06,11,12,58,16.40
2015,06,11,12,59,16.30
2015,06,11,13,00,16.20
2015,06,11,13,01,16.20
2015,06,11,13,02,16.20
2015,06,11,13,03,16.20
2015,06,11,13,04,16.10
2015,06,11,13,05,16.10
2015,06,11,13,06,16.20
2015,06,11,13,07,16.10
2015,06,11,13,08,16.10
2015,06,11,13,09,16.10
2015,06,11,13,10,16.10
2015,06,11,13,11,16.00
2015,06,11,13,12,15.90
2015,06,11,13,13,15.80
2015,06,11,13,14,15.60
2015,06,11,13,15,15.50
2015,06,11,13,16,15.50
2015,06,11,13,17,15.50
2015,06,11,13,18,15.40
2015,06,11,13,19,15.30
2015,06,11,13,20,15.10
2015,06,11,13,21,15.00
2015,06,11,13,22,14.90
2015,06,11,13,23,14.80
2015,06,11,13,24,14.80
2015,06,11,13,25,14.80
2015,06,11,13,26,14.60
2015,06,11,13,27,14.60
2015,06,11,13,28,14.50
2015,06,11,13,29,14.50
2015,06,11,13,30,14.40
2015,06,11,13,31,14.50
2015,06,11,13,32,14.40
2015,06,11,13,33,14.30
2015,06,11,13,34,14.30
2015,06,11,13,35,14.20
2015,06,11,13,36,14.20
2015,06,11,13,37,14.10
2015,06,11,13,38,14.00
2015,06,11,13,39,14.00
2015,06,11,13,40,14.00
2015,06,11,13,41,14.00
2015,06,11,13,42,14.00
2015,06,11,13,43,14.00
2015,06,11,13,44,14.00
2015,06,11,13,45,14.20
2015,06,11,13,46,14.20
2015,06,11,13,47,14.20
2015,06,11,13,48,14.20
2015,06,11,13,49,14.10
2015,06,11,13,50,14.10
2015,06,11,13,51,14.10
2015,06,11,13,52,14.10
2015,06,11,13,53,14.00
2015,06,11,13,54,13.90
2015,06,11,13,55,13.90
2015,06,11,13,56,14.00
2015,06,11,13,57,14.00
2015,06,11,13,58,14.10
2015,06,11,13,59,14.10
2015,06,11,14,00,14.30
2015,06,11,14,01,14.30
2015,06,11,14,02,14.30
2015,06,11,14,03,14.20
2015,06,11,14,04,14.20
2015,06,11,14,05,14.20
2015,06,11,14,06,14.10
2015,06,11,14,07,14.10
2015,06,11,14,08,14.20
2015,06,11,14,09,14.20
2015,06,11,14,10,14.20
2015,06,11,14,11,14.10
2015,06,11,14,12,14.10
2015,06,11,14,13,14.10
2015,06,11,14,14,14.10
2015,06,11,14,15,14.10
2015,06,11,14,16,14.10
2015,06,11,14,17,14.20
2015,06,11,14,18,14.20
2015,06,11,14,19,14.10
2015,06,11,14,20,14.10
2015,06,11,14,21,14.20
2015,06,11,14,22,14.20
2015,06,11,14,23,14.20
2015,06,11,14,24,14.20
2015,06,11,14,25,14.40
2015,06,11,14,26,14.30
2015,06,11,14,27,14.20
2015,06,11,14,28,14.20
2015,06,11,14,29,14.20
2015,06,11,14,30,14.20
2015,06,11,14,31,14.30
2015,06,11,14,32,14.40
2015,06,11,14,33,14.50
2015,06,11,14,34,14.50
2015,06,11,14,35,14.40
2015,06,11,14,36,14.40
2015,06,11,14,37,14.20
2015,06,11,14,38,14.20
2015,06,11,14,39,14.20
2015,06,11,14,40,14.30
2015,06,11,14,41,14.30
2015,06,11,14,42,14.20
2015,06,11,14,43,14.20
2015,06,11,14,44,14.40
2015,06,11,14,45,14.50
2015,06,11,14,46,14.50
2015,06,11,14,47,14.40
2015,06,11,14,48,14.30
2015,06,11,14,49,14.30
2015,06,11,14,50,14.20
2015,06,11,14,51,14.20
2015,06,11,14,52,14.30
2015,06,11,14,53,14.40
2015,06,11,14,54,14.50
2015,06,11,14,55,14.40
2015,06,11,14,56,14.50
2015,06,11,14,57,14.60
2015,06,11,14,58,14.60
2015,06,11,14,59,14.50
2015,06,11,15,00,14.40
2015,06,11,15,01,14.40
2015,06,11,15,02,14.40
2015,06,11,15,03,14.30
2015,06,11,15,04,14.30
2015,06,11,15,05,14.20
2015,06,11,15,06,14.20
2015,06,11,15,07,14.20
2015,06,11,15,08,14.20
2015,06,11,15,09,14.20
2015,06,11,15,10,14.20
2015,06,11,15,11,14.30
2015,06,11,15,12,14.30
2015,06,11,15,13,14.20
2015,06,11,15,14,14.30
2015,06,11,15,15,14.30
2015,06,11,15,16,14.20
2015,06,11,15,17,14.20
2015,06,11,15,18,14.20
2015,06,11,15,19,14.30
2015,06,11,15,20,14.30
2015,06,11,15,21,14.30
2015,06,11,15,22,14.40
2015,06,11,15,23,14.40
2015,06,11,15,24,14.30
2015,06,11,15,25,14.30
2015,06,11,15,26,14.30
2015,06,11,15,27,14.40
2015,06,11,15,28,14.40
2015,06,11,15,29,14.40
2015,06,11,15,30,14.30
2015,06,11,15,31,14.40
2015,06,11,15,32,14.30
2015,06,11,15,33,14.30
2015,06,11,15,34,14.40
2015,06,11,15,35,14.50
2015,06,11,15,36,14.50
2015,06,11,15,37,14.60
2015,06,11,15,38,14.60
2015,06,11,15,39,14.60
2015,06,11,15,40,14.50
2015,06,11,15,41,14.50
2015,06,11,15,42,14.40
2015,06,11,15,43,14.40
2015,06,11,15,44,14.40
2015,06,11,15,45,14.50
2015,06,11,15,46,14.50
2015,06,11,15,47,14.60
2015,06,11,15,48,14.60
2015,06,11,15,49,14.70
2015,06,11,15,50,14.70
2015,06,11,15,51,14.80
2015,06,11,15,52,14.80
2015,06,11,15,53,14.90
2015,06,11,15,54,14.90
2015,06,11,15,55,14.80
2015,06,11,15,56,14.80
2015,06,11,15,57,14.80
2015,06,11,15,58,14.80
2015,06,11,15,59,14.80
2015,06,11,16,00,14.80
2015,06,11,16,01,14.80
2015,06,11,16,02,14.80
2015,06,11,16,03,14.80
2015,06,11,16,04,14.70
2015,06,11,16,05,14.80
2015,06,11,16,06,14.70
2015,06,11,16,07,14.70
2015,06,11,16,08,14.60
2015,06,11,16,09,14.60
2015,06,11,16,10,14.60
2015,06,11,16,11,14.70
2015,06,11,16,12,14.70
2015,06,11,16,13,14.80
2015,06,11,16,14,14.70
2015,06,11,16,15,14.70
2015,06,11,16,16,14.70
2015,06,11,16,17,14.60
2015,06,11,16,18,14.60
2015,06,11,16,19,14.70
2015,06,11,16,20,14.70
2015,06,11,16,21,14.70
2015,06,11,16,22,14.70
2015,06,11,16,23,14.70
2015,06,11,16,24,14.80
2015,06,11,16,25,14.80
2015,06,11,16,26,14.80
2015,06,11,16,27,14.70
2015,06,11,16,28,14.70
2015,06,11,16,29,14.60
2015,06,11,16,30,14.60
2015,06,11,16,31,14.60
2015,06,11,16,32,14.50
2015,06,11,16,33,14.50
2015,06,11,16,34,14.60
2015,06,11,16,35,14.60
2015,06,11,16,36,14.50
2015,06,11,16,37,14.50
2015,06,11,16,38,14.50
2015,06,11,16,39,14.40
2015,06,11,16,40,14.40
2015,06,11,16,41,14.40
2015,06,11,16,42,14.40
2015,06,11,16,43,14.40
2015,06,11,16,44,14.30
2015,06,11,16,45,14.30
2015,06,11,16,46,14.20
2015,06,11,16,47,14.20
2015,06,11,16,48,14.20
2015,06,11,16,49,14.30
2015,06,11,16,50,14.30
2015,06,11,16,51,14.30
2015,06,11,16,52,14.30
2015,06,11,16,53,14.20
2015,06,11,16,54,14.20
2015,06,11,16,55,14.20
2015,06,11,16,56,14.20
2015,06,11,16,57,14.20
2015,06,11,16,58,14.20
2015,06,11,16,59,14.20
2015,06,11,17,00,14.20
2015,06,11,17,01,14.20
2015,06,11,17,02,14.10
2015,06,11,17,03,14.10
2015,06,11,17,04,14.00
2015,06,11,17,05,13.90
2015,06,11,17,06,13.90
2015,06,11,17,07,13.90
2015,06,11,17,08,13.90
2015,06,11,17,09,14.00
2015,06,11,17,10,14.00
2015,06,11,17,11,14.10
2015,06,11,17,12,14.10
2015,06,11,17,13,14.10
2015,06,11,17,14,14.20
2015,06,11,17,15,14.20
2015,06,11,17,16,14.10
2015,06,11,17,17,14.10
2015,06,11,17,18,14.10
2015,06,11,17,19,14.10